Simultaneous Nadir Overpasses (SNOs) Predictions

Prediction of SNOs between GOES-16 and NOAA-21 Satellite Orbit:

Table of predicted SNOs for the next 14.0 days since TLE Epoch: 3/8/2024
Index Date Time (GOES-16) GOES-16 Lat,Lon NOAA-21 Lat,Lon Distance(km) Time Diff (sec)
1 03/10/2024 18:25:38 0.05, -75.21 -0.11, -75.79 66.35 80
2 03/11/2024 18:09:35 0.05, -75.22 0.96, -71.27 450.52 80
3 03/13/2024 06:31:24 -0.05, -75.23 0.23, -76.54 149.70 80
4 03/14/2024 06:10:01 -0.05, -75.23 -0.77, -72.01 367.23 80
5 03/15/2024 18:31:59 0.04, -75.26 -0.41, -77.32 235.33 80
6 03/16/2024 18:15:56 0.04, -75.27 0.60, -72.80 282.06 80
7 03/18/2024 06:37:45 -0.03, -75.28 0.58, -78.07 316.97 80
8 03/19/2024 06:16:22 -0.03, -75.30 -0.43, -73.54 200.71 80
9 03/20/2024 18:38:19 0.02, -75.33 -0.80, -78.84 400.71 80
10 03/21/2024 18:22:15 0.02, -75.35 0.22, -74.31 117.72 80
